Regional Weather Roundup
Issued by NWS

Home | Current Version | Previous Version | Graphics & Text | Print | Product List | Glossary On
Versions: 1 2 3 4 5 6 7 8 9 10 11 12 13 14 15 16 17 18 19 20 21 22 23 24 25 26 27 28 29 30 31 32 33 34 35 36 37 38 39 40 41 42 43 44 45 46 47 48 49 50
000
ASUS45 KCYS 281810
RWRWY

WYOMING REGIONAL WEATHER ROUNDUP
NATIONAL WEATHER SERVICE CHEYENNE WY
1200 PM MDT SAT MAR 28 2015

NOTE:  "FAIR" INDICATES FEW OR NO CLOUDS BELOW 12,000 FEET
WITH NO SIGNIFICANT WEATHER AND/OR OBSTRUCTIONS TO VISIBILITY.

WYZ001-281900-
YELLOWSTONE NATIONAL PARK

CITY           SKY/WX    TMP DP  RH WIND       PRES   REMARKS
LK YELLOWSTONE   N/A     49  26  41 W16G35    30.04S
6HR MIN TEMP:  24; 6HR MAX TEMP:  51;

W YELLOWSTONE  NOT AVBL

$$
WYZ002>013-054>058-071-098>099-281900-
NORTHERN WYOMING

CITY           SKY/WX    TMP DP  RH WIND       PRES   REMARKS
JACKSON        MOSUNNY   55  27  33 S12       30.04F
CODY           FAIR      70  25  18 SW15G35   29.80F
GREYBULL       FAIR      71  29  21 SE20G28   29.79F
6HR MIN TEMP:  35; 6HR MAX TEMP:  72;

WORLAND        FAIR      75  32  20 SW18G25   29.81F
6HR MIN TEMP:  34; 6HR MAX TEMP:  75;

SHERIDAN       FAIR      77  25  14 NW9       29.73F
6HR MIN TEMP:  50; 6HR MAX TEMP:  77;

BUFFALO        FAIR      72  25  17 E9        29.80F
6HR MIN TEMP:  50; 6HR MAX TEMP:  72;

GILLETTE       FAIR      72  31  22 SW20G25   29.80F
6HR MIN TEMP:  39; 6HR MAX TEMP:  72;

HULETT         FAIR      70  32  24 SW10G17   29.82F
NEWCASTLE      FAIR      64  28  25 S9        29.87F

$$
WYZ014>020-022>026-101>103-281900-
CENTRAL WYOMING

CITY           SKY/WX    TMP DP  RH WIND       PRES   REMARKS
BIG PINEY      FAIR      63  24  22 W26G32    30.11F
6HR MIN TEMP:  23; 6HR MAX TEMP:  63;

PINEDALE       FAIR      59  28  31 SW13      30.11F
DUBOIS         FAIR      55  23  28 W30G39    30.00F
LANDER         FAIR      71  24  17 NW17G25   29.94F
6HR MIN TEMP:  40; 6HR MAX TEMP:  71;

RIVERTON       FAIR      69  25  19 SW15G24   29.93F
6HR MIN TEMP:  42; 6HR MAX TEMP:  70;

CASPER         FAIR      69  30  23 SW24G31   29.95F
6HR MIN TEMP:  40; 6HR MAX TEMP:  69;

DOUGLAS        FAIR      72  26  18 W21       29.92F
6HR MIN TEMP:  32; 6HR MAX TEMP:  72;


$$
WYZ021-027>030-104>119-281900-
SOUTHERN WYOMING

CITY           SKY/WX    TMP DP  RH WIND       PRES   REMARKS
EVANSTON       FAIR      62  26  25 W32G41    30.19S
6HR MIN TEMP:  38; 6HR MAX TEMP:  63;

KEMMERER       FAIR      61  27  27 W30G46    30.16F
FORT BRIDGER   FAIR      66  26  22 W30G39    30.20R
ROCK SPRINGS   FAIR      65  25  22 W18G31    30.13F
6HR MIN TEMP:  36; 6HR MAX TEMP:  65;

DIXON          FAIR      65  28  24 S16G24    30.18F
RAWLINS        FAIR      64  25  22 SW25G35   30.11F
6HR MIN TEMP:  39; 6HR MAX TEMP:  64;

SARATOGA       FAIR      63  21  20 SW21G29   30.15F
LARAMIE        FAIR      63  21  20 W21G32    30.11F
6HR MIN TEMP:  32; 6HR MAX TEMP:  63;

CHEYENNE       FAIR      69  21  16 W29G38    30.04F
6HR MIN TEMP:  38; 6HR MAX TEMP:  70;

TORRINGTON     FAIR      74  25  16 W18G25    29.91F
6HR MIN TEMP:  31; 6HR MAX TEMP:  74;

PINE BLUFFS    FAIR      72  23  16 W17G30    30.01S

$$



USA.gov is the U.S. government's official web portal to all federal, state and local government web resources and services.